[[{"header":{"parameterUnit":"m.s-1","parameterCategory":2,"la1":30.2992,"la2":30.254,"lo1":-89.0895,"lo2":-89.0443,"dy":0.0025,"dx":0.0025,"nx":19,"ny":19,"refTime":"2026-03-23T21:00:00:Z","depth":"0","parameterNumber":2,"parameterNumberName":"U-component_of_CURRENTS"},"data":[0,0,0,0.4637,0.4643,0.4874,0.4874,0.5225,0.5229,0,0,0,0,0,0,0,0,0,0,0,0.4552,0.4554,0.4636,0.4644,0.4874,0.4874,0.5224,0.5229,0,0,0,0,0,0,0,0,0,0,0,0.455,0.4554,0.4557,0.4645,0.4874,0.4874,0.5223,0.5024,0,0,0,0,0,0,0,0,0,0,0.4788,0.4687,0.4553,0.4557,0.4647,0.4874,0.4874,0.5013,0.5036,0.5152,0,0.5227,0,0.5268,0.5258,0.5259,0,0,0,0.4595,0.4666,0.4776,0.4558,0.465,0.4874,0.4756,0.5025,0.5052,0.5183,0.5232,0.5245,0.5273,0.5261,0.5263,0.5726,0.5728,0,0,0.4582,0.4544,0.4758,0.4794,0.4767,0.4749,0.4764,0.504,0.5067,0.5234,0.5254,0.5279,0.5264,0.5267,0.5724,0.5727,0,0,0,0.4579,0.4535,0.4633,0.4779,0.4836,0.4757,0.4774,0.5052,0.5101,0.5258,0.5283,0.5266,0.5271,0.5722,0.5725,0.589,0,0,0,0.4569,0.4538,0.4628,0.46,0.4831,0.4934,0.478,0.508,0.5113,0.5282,0.5266,0.5276,0.572,0.5724,0.5881,0.5837,0,0,0,0.4531,0.4532,0.4585,0.4599,0.4727,0.493,0.4988,0.5086,0.5133,0.526,0.5277,0.5719,0.5723,0.5874,0.5827,0.5926,0,0,0,0.4442,0.4667,0.4585,0.485,0.4726,0.5063,0.4986,0.5178,0.5299,0.5268,0.5721,0.5725,0.5871,0.5822,0.592,0.5833,0.5854,0,0,0.4705,0.4696,0.4865,0.4802,0.5156,0.5024,0.5344,0.5413,0.5397,0.5621,0.5632,0.5884,0.5827,0.5925,0.608,0.6093,0,0,0,0.4937,0.5057,0.5167,0.5319,0.5473,0.5525,0.5603,0.5633,0.575,0.55,0.5925,0.5881,0.5939,0.5876,0.5889,0.557,0.5745,0.5744,0.5744,0.5184,0.5277,0.5534,0.5673,0.5816,0.5894,0.5944,0.597,0.601,0.6058,0.6053,0.627,0.6211,0.6218,0.5894,0.6155,0.6156,0.6157,0.6157,0.5542,0.5671,0.5702,0.5969,0.5979,0.6158,0.6252,0.6229,0.6349,0.6284,0.6337,0.6095,0.624,0.589,0.6168,0.6166,0.6165,0.6164,0.6163,0.5697,0.5748,0.5852,0.6011,0.6112,0.6191,0.625,0.6333,0.6408,0.6451,0.638,0.6375,0.6027,0.6516,0.6517,0.6517,0.6517,0.6518,0.6518,0.5731,0.5843,0.5901,0.6047,0.6062,0.6116,0.6251,0.6323,0.644,0.6471,0.6471,0.6058,0.6376,0.6317,0.6523,0.6522,0.6521,0.6521,0.6521,0.5883,0.5806,0.5923,0.5933,0.5971,0.5892,0.6107,0.6256,0.6419,0.6459,0.6115,0.6507,0.6417,0.6405,0.6345,0.6546,0.6546,0.6546,0.6546,0.582,0.5847,0.5812,0.5797,0.5798,0.5778,0.5657,0.5773,0.5927,0.5886,0.5949,0.5827,0.584,0.5707,0.571,0.5633,0.5648,0.5647,0.5645,0.5742,0.5769,0.5675,0.5693,0.5682,0.5567,0.5225,0.4963,0.5293,0.5577,0.5526,0.5565,0.5354,0.54,0.5163,0.5193,0.5056,0,0]},{"header":{"parameterUnit":"m.s-1","parameterCategory":2,"la1":30.2992,"la2":30.254,"lo1":-89.0895,"lo2":-89.0443,"dy":0.0025,"dx":0.0025,"nx":19,"ny":19,"refTime":"2026-03-23T21:00:00:Z","depth":"0","parameterNumber":3,"parameterNumberName":"V-component_of_CURRENTS"},"data":[0,0,0,-0.025,-0.0253,-0.0427,-0.0428,-0.0612,-0.0613,0,0,0,0,0,0,0,0,0,0,0,-0.0182,-0.0183,-0.025,-0.0253,-0.0427,-0.0428,-0.0612,-0.0613,0,0,0,0,0,0,0,0,0,0,0,-0.0182,-0.0183,-0.0184,-0.0254,-0.0427,-0.0428,-0.0612,-0.0494,0,0,0,0,0,0,0,0,0,0,-0.0332,-0.025,-0.0183,-0.0184,-0.0255,-0.0426,-0.0428,-0.0489,-0.0502,-0.0517,0,-0.053,0,-0.0571,-0.0623,-0.0624,0,0,0,-0.0272,-0.024,-0.0303,-0.0184,-0.0256,-0.0426,-0.0354,-0.0497,-0.051,-0.0533,-0.0533,-0.054,-0.0574,-0.0624,-0.0625,-0.0525,-0.0523,0,0,-0.0262,-0.0204,-0.0293,-0.0311,-0.0283,-0.0348,-0.0359,-0.0506,-0.0501,-0.0533,-0.0545,-0.0577,-0.0625,-0.0626,-0.0527,-0.0525,0,0,0,-0.0222,-0.0197,-0.0257,-0.0302,-0.0335,-0.0353,-0.0365,-0.0495,-0.0519,-0.0547,-0.0579,-0.0626,-0.0628,-0.053,-0.0526,-0.0287,0,0,0,-0.0217,-0.0173,-0.0252,-0.0219,-0.0331,-0.0417,-0.035,-0.0509,-0.0527,-0.0578,-0.0626,-0.0629,-0.0532,-0.0528,-0.0298,-0.0186,0,0,0,-0.0178,-0.0169,-0.0187,-0.0215,-0.0286,-0.0416,-0.045,-0.0514,-0.0545,-0.0624,-0.063,-0.0534,-0.0529,-0.0309,-0.0204,-0.0051,0,0,0,-0.0118,-0.0106,-0.0185,-0.0168,-0.0284,-0.0297,-0.045,-0.0496,-0.0549,-0.0627,-0.0532,-0.0527,-0.0312,-0.0215,-0.0063,0.012,0.0188,0,0,-0.0067,-0.0098,-0.0086,-0.0161,-0.0134,-0.0276,-0.0201,-0.0361,-0.0466,-0.0491,-0.049,-0.0294,-0.0205,-0.0054,0.042,0.0479,0,0,0,-0.0046,-0.0028,-0.0038,-0.0039,-0.0087,-0.006,-0.0201,-0.023,-0.0249,-0.0472,-0.0256,-0.0206,-0.0119,-0.0031,0.0017,-0.0191,-0.0503,-0.0503,-0.0504,0.0092,0.0071,0.0133,0.0123,0.0138,0.009,0.0121,0.0076,-0.0079,-0.0018,0.0018,0.0338,0.0438,0.0475,0.026,0.0046,0.0047,0.0048,0.0048,0.0226,0.028,0.0299,0.0343,0.0371,0.0427,0.045,0.0381,0.0471,0.0292,0.0365,0.0254,0.0542,0.0293,0.0064,0.0062,0.006,0.0058,0.0057,0.0329,0.0365,0.0382,0.0492,0.0602,0.0615,0.0779,0.0749,0.0705,0.0797,0.0841,0.0837,0.0589,0.0818,0.082,0.0821,0.0822,0.0823,0.0824,0.0434,0.0468,0.0541,0.0637,0.0708,0.0837,0.0959,0.1065,0.1185,0.1144,0.1144,0.0715,0.0572,0.0508,0.0843,0.0839,0.0837,0.0835,0.0834,0.0562,0.0548,0.0668,0.0733,0.0928,0.1178,0.1263,0.1567,0.1631,0.1747,0.1299,0.1323,0.1259,0.122,0.1172,0.1658,0.1658,0.1658,0.1658,0.0633,0.0641,0.0796,0.0929,0.1137,0.1347,0.1816,0.2041,0.1901,0.176,0.1517,0.1347,0.1322,0.1245,0.1205,0.1148,0.1618,0.1617,0.1616,0.0717,0.0747,0.0869,0.0994,0.1233,0.1598,0.2134,0.2502,0.2101,0.1578,0.12,0.1202,0.0897,0.0876,0.0695,0.0655,0.0539,0,0]}],[{"header":{"parameterUnit":"m.s-1","parameterCategory":2,"la1":30.2992,"la2":30.254,"lo1":-89.0895,"lo2":-89.0443,"dy":0.0025,"dx":0.0025,"nx":19,"ny":19,"refTime":"2026-03-23T21:00:00:Z","depth":"2","parameterNumber":2,"parameterNumberName":"U-component_of_CURRENTS"},"data":[0,0,0,0.2973,0.2974,0.3114,0.3116,0.3359,0.3361,0,0,0,0,0,0,0,0,0,0,0,0.288,0.2878,0.2973,0.2974,0.3114,0.3116,0.3359,0.3361,0,0,0,0,0,0,0,0,0,0,0,0.2881,0.2879,0.2877,0.2974,0.3114,0.3116,0.3358,0.3251,0,0,0,0,0,0,0,0,0,0,0.3113,0.3068,0.2879,0.2877,0.2975,0.3114,0.3116,0.3246,0.3258,0.3295,0,0.3234,0,0.3296,0.3373,0.3373,0,0,0,0.3035,0.3058,0.3017,0.2876,0.2975,0.3113,0.3068,0.3253,0.3266,0.331,0.3238,0.3248,0.33,0.3374,0.3375,0.3753,0.3756,0,0,0.3027,0.3009,0.3006,0.3022,0.2906,0.3063,0.3072,0.3261,0.3277,0.3239,0.3255,0.3304,0.3375,0.3377,0.3751,0.3754,0,0,0,0.2964,0.3003,0.296,0.3011,0.3027,0.3066,0.3076,0.3271,0.3229,0.3258,0.3306,0.3376,0.3378,0.3748,0.3752,0.386,0,0,0,0.2962,0.2961,0.2954,0.2961,0.302,0.3162,0.3081,0.3216,0.3241,0.3305,0.3376,0.338,0.3744,0.375,0.385,0.3835,0,0,0,0.2893,0.296,0.2922,0.2956,0.2986,0.3158,0.3137,0.3224,0.3268,0.3374,0.3381,0.3742,0.3749,0.3841,0.3824,0.3908,0,0,0,0.2947,0.2928,0.292,0.2954,0.2983,0.3168,0.3137,0.336,0.3475,0.3377,0.3745,0.3751,0.3839,0.3817,0.3901,0.3652,0.3664,0,0,0.2969,0.2932,0.296,0.2956,0.3136,0.3159,0.3418,0.3555,0.3582,0.3689,0.3698,0.3853,0.3823,0.3907,0.4036,0.4034,0,0,0,0.3004,0.3029,0.3112,0.3164,0.3265,0.3446,0.3566,0.3679,0.3872,0.366,0.3959,0.3937,0.3985,0.3825,0.3828,0.3783,0.3782,0.3781,0.3781,0.318,0.3155,0.3283,0.3319,0.3425,0.3671,0.3839,0.3986,0.4013,0.4165,0.4106,0.4345,0.4185,0.4182,0.4232,0.4232,0.4233,0.4233,0.4233,0.332,0.3314,0.3375,0.3494,0.3601,0.3791,0.405,0.4154,0.4363,0.4346,0.4389,0.4047,0.4189,0.4244,0.4242,0.4241,0.424,0.4239,0.4238,0.3376,0.3333,0.3448,0.3524,0.3716,0.3914,0.4044,0.4256,0.4443,0.45,0.4341,0.4335,0.4316,0.456,0.4561,0.4561,0.4561,0.4562,0.4562,0.3303,0.3387,0.3432,0.3592,0.365,0.3797,0.4064,0.4153,0.4336,0.442,0.4418,0.4454,0.4443,0.4339,0.4568,0.4567,0.4566,0.4566,0.4565,0.3152,0.3227,0.3267,0.3327,0.344,0.345,0.3758,0.3939,0.4114,0.4165,0.437,0.4373,0.4293,0.4288,0.4182,0.4357,0.4357,0.4357,0.4357,0.3007,0.3064,0.3039,0.3031,0.3056,0.3223,0.3239,0.3428,0.3776,0.3901,0.392,0.3782,0.38,0.3686,0.3694,0.3573,0.359,0.3589,0.3587,0.2873,0.2916,0.2792,0.2829,0.2833,0.2916,0.2918,0.2942,0.3206,0.3557,0.3789,0.4305,0.415,0.416,0.4018,0.4019,0.3837,0,0]},{"header":{"parameterUnit":"m.s-1","parameterCategory":2,"la1":30.2992,"la2":30.254,"lo1":-89.0895,"lo2":-89.0443,"dy":0.0025,"dx":0.0025,"nx":19,"ny":19,"refTime":"2026-03-23T21:00:00:Z","depth":"2","parameterNumber":3,"parameterNumberName":"V-component_of_CURRENTS"},"data":[0,0,0,0.0164,0.0164,0.0073,0.0072,-0.0136,-0.0137,0,0,0,0,0,0,0,0,0,0,0,0.0201,0.0202,0.0164,0.0164,0.0074,0.0072,-0.0136,-0.0137,0,0,0,0,0,0,0,0,0,0,0,0.02,0.0202,0.0203,0.0164,0.0074,0.0072,-0.0135,-0.006,0,0,0,0,0,0,0,0,0,0,0.0033,0.0066,0.0201,0.0203,0.0164,0.0074,0.0072,-0.0056,-0.0064,-0.01,0,-0.0059,0,-0.0077,-0.0147,-0.0148,0,0,0,0.0099,0.0073,0.0101,0.0203,0.0164,0.0074,0.0096,-0.006,-0.007,-0.0112,-0.0062,-0.007,-0.008,-0.0148,-0.0149,-0.0239,-0.0239,0,0,0.0104,0.0115,0.0109,0.0097,0.0211,0.0099,0.0094,-0.0066,-0.0079,-0.0063,-0.0075,-0.0084,-0.0149,-0.015,-0.0239,-0.0239,0,0,0,0.0162,0.0119,0.0148,0.0105,0.0111,0.0098,0.0092,-0.0074,-0.0045,-0.0077,-0.0086,-0.015,-0.0152,-0.0239,-0.0239,-0.0089,0,0,0,0.0162,0.0158,0.0152,0.0147,0.0117,0.0022,0.0088,-0.0035,-0.0054,-0.0085,-0.015,-0.0153,-0.0239,-0.0239,-0.0093,-0.0005,0,0,0,0.0192,0.0158,0.0183,0.015,0.0145,0.0025,0.0037,-0.0041,-0.0057,-0.0148,-0.0154,-0.024,-0.0239,-0.0097,-0.0014,0.0074,0,0,0,0.0155,0.022,0.0184,0.0241,0.0148,0.0136,0.0037,-0.0066,-0.0145,-0.0151,-0.0239,-0.0239,-0.0098,-0.0019,0.0068,0.0271,0.0312,0,0,0.0221,0.0227,0.0265,0.0232,0.0282,0.0139,0.0132,-0.0042,-0.0147,-0.0205,-0.0208,-0.0092,-0.0014,0.0072,0.0288,0.033,0,0,0,0.0274,0.0296,0.0292,0.0327,0.0306,0.0251,0.0092,0.002,-0.0094,-0.0174,-0.0128,-0.0084,-0.0033,0.0075,0.0108,-0.0238,-0.0238,-0.0238,-0.0238,0.0287,0.0339,0.0365,0.0393,0.04,0.0306,0.0251,0.0131,-0.0008,-0.0052,0.0011,0.0144,0.0259,0.0287,-0.0035,-0.0034,-0.0033,-0.0033,-0.0033,0.0344,0.0384,0.0414,0.0442,0.0453,0.0441,0.0392,0.0297,0.0256,0.0108,0.015,0.0194,0.0332,-0.0021,-0.0024,-0.0025,-0.0026,-0.0027,-0.0028,0.0337,0.038,0.0356,0.0454,0.049,0.0482,0.0681,0.0558,0.0394,0.0439,0.0504,0.0503,0.0272,0.0428,0.0429,0.043,0.043,0.0431,0.0432,0.0369,0.0372,0.042,0.0459,0.053,0.0706,0.0804,0.0914,0.0856,0.0698,0.0698,0.0299,0.0284,0.0296,0.0444,0.0441,0.044,0.0439,0.0438,0.0475,0.0453,0.0572,0.0628,0.089,0.1215,0.1254,0.1453,0.1414,0.1419,0.0854,0.084,0.0817,0.079,0.0812,0.1084,0.1084,0.1085,0.1085,0.0558,0.0552,0.0794,0.1011,0.1348,0.1525,0.1914,0.1839,0.1549,0.1251,0.1242,0.117,0.1143,0.1129,0.1093,0.1116,0.1468,0.1468,0.1468,0.0663,0.0722,0.0964,0.1192,0.1583,0.1966,0.2181,0.1962,0.155,0.1469,0.1154,0.114,0.1008,0.0976,0.0921,0.0878,0.0901,0,0]}],[{"header":{"parameterUnit":"m.s-1","parameterCategory":2,"la1":30.2992,"la2":30.254,"lo1":-89.0895,"lo2":-89.0443,"dy":0.0025,"dx":0.0025,"nx":19,"ny":19,"refTime":"2026-03-23T21:00:00:Z","depth":"4","parameterNumber":2,"parameterNumberName":"U-component_of_CURRENTS"},"data":[0,0,0,0.1319,0.1321,0.146,0.146,0.1587,0.1588,0,0,0,0,0,0,0,0,0,0,0,0.1312,0.1313,0.1319,0.1322,0.146,0.1461,0.1587,0.1588,0,0,0,0,0,0,0,0,0,0,0,0.1311,0.1313,0.1315,0.1322,0.1459,0.1461,0.1587,0.15,0,0,0,0,0,0,0,0,0,0,0.1375,0.136,0.1312,0.1315,0.1322,0.1459,0.1461,0.1497,0.1506,0.1503,0,0.1547,0,0.1542,0.1593,0.1594,0,0,0,0.1344,0.1353,0.1387,0.1315,0.1323,0.1459,0.1404,0.1503,0.1512,0.1514,0.1549,0.1553,0.1544,0.1594,0.1594,0.1677,0.1677,0,0,0.1336,0.1335,0.138,0.1394,0.1387,0.1399,0.1408,0.1509,0.1532,0.1549,0.1555,0.1546,0.1594,0.1595,0.1676,0.1677,0,0,0,0.1299,0.1329,0.1363,0.1389,0.1403,0.1402,0.1412,0.1528,0.154,0.1557,0.1548,0.1595,0.1596,0.1676,0.1676,0.1796,0,0,0,0.1296,0.1305,0.136,0.1359,0.1402,0.1469,0.1429,0.1535,0.1544,0.1547,0.1595,0.1597,0.1676,0.1676,0.1792,0.1851,0,0,0,0.13,0.1304,0.133,0.1359,0.1403,0.1468,0.1487,0.1537,0.1537,0.1594,0.1597,0.1675,0.1676,0.1788,0.1844,0.1927,0,0,0,0.128,0.1278,0.1331,0.1347,0.1402,0.1428,0.1486,0.1501,0.154,0.1595,0.1676,0.1676,0.1787,0.184,0.1923,0.1693,0,0,0,0.1242,0.1275,0.1283,0.133,0.1317,0.1409,0.1478,0.1545,0.1559,0.1641,0.1644,0.1793,0.1844,0.1926,0.1737,0,0,0,0,0.1246,0.1255,0.1255,0.1294,0.1329,0.1433,0.1501,0.1557,0.1673,0.1584,0.1774,0.1802,0.1851,0.1701,0.168,0.168,0.168,0.168,0.168,0.1166,0.1212,0.1216,0.1283,0.1332,0.1456,0.1578,0.1686,0.1683,0.1746,0.1886,0.2011,0.1853,0.1864,0.1864,0.1865,0.1865,0.1866,0.1866,0.1064,0.1077,0.1201,0.1222,0.1377,0.1483,0.1703,0.1783,0.2008,0.1948,0.1991,0.1818,0.1877,0.1875,0.1873,0.1872,0.1871,0.187,0.187,0.0951,0.0977,0.1038,0.116,0.1347,0.1549,0.1809,0.2012,0.2095,0.2216,0.2051,0.2098,0.2106,0.2243,0.2244,0.2244,0.2245,0.2245,0.2246,0.0812,0.0874,0.0946,0.1117,0.1242,0.1527,0.1897,0.2049,0.2198,0.2167,0.2261,0.2138,0.2126,0.2127,0.2256,0.2254,0.2253,0.2252,0.2251,0.0674,0.0756,0.082,0.0928,0.1212,0.1406,0.1775,0.2054,0.2173,0.219,0.2132,0.2135,0.2076,0.2066,0.2062,0.2178,0.2175,0.2173,0,0.0617,0.0654,0.0758,0.0862,0.1047,0.1321,0.1511,0.1758,0.1937,0.1867,0.2079,0.1999,0.2004,0.1917,0.1905,0.1888,0,0,0,0.0576,0.0618,0.0669,0.0791,0.0943,0.1259,0.1578,0.1634,0.1913,0.2019,0.2112,0.2128,0.2161,0.2285,0.2203,0.2188,0.2185,0,0]},{"header":{"parameterUnit":"m.s-1","parameterCategory":2,"la1":30.2992,"la2":30.254,"lo1":-89.0895,"lo2":-89.0443,"dy":0.0025,"dx":0.0025,"nx":19,"ny":19,"refTime":"2026-03-23T21:00:00:Z","depth":"4","parameterNumber":3,"parameterNumberName":"V-component_of_CURRENTS"},"data":[0,0,0,0.0383,0.0386,0.0432,0.0432,0.0359,0.0358,0,0,0,0,0,0,0,0,0,0,0,0.034,0.034,0.0383,0.0386,0.0432,0.0432,0.0359,0.0358,0,0,0,0,0,0,0,0,0,0,0,0.034,0.034,0.0341,0.0386,0.0432,0.0431,0.0359,0.0347,0,0,0,0,0,0,0,0,0,0,0.0314,0.0313,0.034,0.0341,0.0387,0.0432,0.0431,0.0347,0.0348,0.0313,0,0.0333,0,0.0372,0.0354,0.0354,0,0,0,0.0345,0.0313,0.0334,0.0341,0.0388,0.0432,0.0399,0.0348,0.0348,0.0313,0.0333,0.0332,0.0371,0.0354,0.0353,0.0352,0.0352,0,0,0.0342,0.0334,0.0334,0.0334,0.0415,0.0398,0.0402,0.0349,0.0348,0.0333,0.0332,0.037,0.0353,0.0353,0.0351,0.0352,0,0,0,0.0363,0.0332,0.0355,0.0335,0.0371,0.0401,0.0404,0.035,0.0361,0.0331,0.0369,0.0353,0.0352,0.0351,0.0352,0.0436,0,0,0,0.0359,0.0348,0.0354,0.0347,0.0373,0.0383,0.0405,0.0363,0.036,0.037,0.0353,0.0351,0.035,0.0351,0.0432,0.0505,0,0,0,0.0335,0.0346,0.0357,0.0347,0.0391,0.0386,0.0392,0.0363,0.0384,0.0354,0.0351,0.035,0.0351,0.0429,0.0499,0.0452,0,0,0,0.0314,0.0373,0.0357,0.0433,0.0391,0.0466,0.0392,0.0429,0.0415,0.0352,0.0351,0.0352,0.0428,0.0495,0.0449,0.0473,0,0,0,0.0386,0.0381,0.0429,0.0418,0.0525,0.0456,0.0522,0.0469,0.041,0.0349,0.035,0.0433,0.0498,0.0451,0.0534,0,0,0,0,0.0452,0.0505,0.0528,0.0585,0.0599,0.0603,0.0565,0.0511,0.0454,0.0416,0.0431,0.047,0.0437,0.0444,0.0357,0.0357,0.0356,0.0356,0.0356,0.0573,0.0592,0.0687,0.0719,0.0738,0.0707,0.0675,0.0592,0.0529,0.0508,0.0535,0.0563,0.0576,0.0511,0.0512,0.0512,0.0512,0.0513,0.0513,0.0728,0.079,0.0804,0.091,0.0879,0.0909,0.0792,0.0725,0.0634,0.0591,0.0552,0.0532,0.0521,0.0519,0.0518,0.0517,0.0517,0.0516,0.0516,0.0821,0.0847,0.092,0.1029,0.1083,0.1045,0.103,0.0929,0.0744,0.0722,0.0655,0.0601,0.0592,0.0676,0.0676,0.0676,0.0677,0.0677,0.0677,0.0862,0.0929,0.1027,0.1152,0.1214,0.1266,0.1176,0.1072,0.0893,0.0776,0.0744,0.0616,0.0611,0.06,0.0679,0.0679,0.0678,0.0678,0.0678,0.0936,0.0957,0.1109,0.1195,0.1333,0.1363,0.1325,0.112,0.0978,0.0821,0.0752,0.0747,0.0706,0.0698,0.0688,0.0796,0.0797,0.0797,0,0.0946,0.0977,0.1136,0.1251,0.135,0.1389,0.1262,0.114,0.0916,0.0919,0.0897,0.0826,0.0819,0.0779,0.0772,0.0766,0,0,0,0.0945,0.1008,0.11,0.124,0.1339,0.1259,0.1226,0.1144,0.1004,0.0872,0.0812,0.0808,0.0767,0.0685,0.061,0.0604,0.0581,0,0]}]]